Weather History for Tacoma, WA

Change the Weather History Date:

Thursday, June 6, 2013

  Actual Average Record
Temperature  
Mean Temperature 62 °F -  
Max Temperature 78 °F 65 °F 91 °F (2003)
Min Temperature 48 °F 46 °F 39 °F (1962)
Degree Days  
Heating Degree Days 2    
Growing Degree Days 12 (Base 50)    
Moisture  
Dew Point 51 °F    
Average Humidity 75    
Maximum Humidity 100    
Minimum Humidity 37    
Precipitation  
Precipitation 0.00 in - - ()
Sea Level Pressure  
Sea Level Pressure 30.06 in    
Wind  
Wind Speed 3 mph (SW)    
Max Wind Speed 9 mph    
Max Gust Speed -    
Visibility 8 miles    
Events      
Averages and records for this station are not official NWS values.
T = Trace of Precipitation, MM = Missing Value Source: NWS Daily Summary

Daily Weather History Graph

Daily Weather History Graph

Search for Another Location

Airport:

Trip Planner

Search our weather history database for the weather conditions in past years. The results will help you decide how hot, cold, wet, or windy it might be!

Date:

Astronomy

Jun. 06, 2013 Rise Set
Actual Time 5:15 AM PDT 9:02 PM PDT
Civil Twilight 4:36 AM PDT 9:41 PM PDT
Nautical Twilight 3:42 AM PDT 10:35 PM PDT
Astronomical Twilight 2:26 AM PDT 11:52 PM PDT
Moon 4:07 AM PDT (6/6) 7:23 PM PDT (6/6)
Length of Visible Light 17h 05m
Length of Day
15h 46m
Waning Crescent, 3% of the Moon is Illuminated
Jun 6
Waning Crescent
Jun 8
New
Jun 16
First Quarter
Jun 23
Full
Jun 29
Last Quarter

Hourly Weather History & Observations

Time (PDT) Temp. Dew Point Humidity Pressure Visibility Wind Dir Wind Speed Gust Speed Precip Events Conditions
12:58 AM 60.8 °F 53.1 °F 76% 30.06 in 10.0 mi South 2.3 mph - N/A   Clear
1:58 AM 55.8 °F 51.8 °F 87% 30.06 in 10.0 mi Calm Calm - N/A   Clear
2:58 AM 57.6 °F 52.3 °F 83% 30.06 in 10.0 mi South 2.3 mph - N/A   Clear
3:58 AM 53.1 °F 51.3 °F 94% 30.06 in 10.0 mi South 2.3 mph - N/A   Clear
4:33 AM 51.8 °F 50.0 °F 94% 30.06 in 1.2 mi South 3.5 mph - N/A   Clear
4:38 AM 51.8 °F 50.0 °F 94% 30.06 in 1.0 mi South 3.5 mph - N/A   Clear
4:43 AM 50.0 °F 50.0 °F 100% 30.06 in 2.0 mi South 3.5 mph - N/A   Clear
4:48 AM 50.0 °F 50.0 °F 100% 30.06 in 4.0 mi South 3.5 mph - N/A   Clear
4:58 AM 49.8 °F 49.3 °F 98% 30.07 in 10.0 mi South 3.5 mph - N/A   Clear
5:03 AM 48.2 °F 48.2 °F 100% 30.06 in 2.0 mi SSW 2.3 mph - N/A   Clear
5:08 AM 48.2 °F 48.2 °F 100% 30.05 in 1.2 mi South 2.3 mph - N/A   Clear
5:13 AM 50.0 °F 48.2 °F 94% 30.06 in 1.8 mi South 3.5 mph - N/A   Clear
5:18 AM 50.0 °F 50.0 °F 100% 30.05 in 0.8 mi South 3.5 mph - N/A   Clear
5:23 AM 50.0 °F 50.0 °F 100% 30.06 in 1.0 mi South 2.3 mph - N/A   Clear
5:28 AM 50.0 °F 50.0 °F 100% 30.05 in 8.0 mi South 2.3 mph - N/A   Clear
5:58 AM 49.6 °F 49.5 °F 99% 30.07 in 8.0 mi South 2.3 mph - N/A   Clear
6:58 AM 56.3 °F 54.1 °F 92% 30.08 in 10.0 mi West 2.3 mph - N/A   Clear
7:58 AM 59.0 °F 52.9 °F 80% 30.08 in 10.0 mi Variable 1.2 mph - N/A   Clear
8:58 AM 63.0 °F 53.2 °F 71% 30.09 in 10.0 mi North 3.5 mph - N/A   Clear
9:58 AM 65.8 °F 53.4 °F 64% 30.08 in 10.0 mi NNW 3.5 mph - N/A   Clear
10:58 AM 68.7 °F 53.4 °F 58% 30.08 in 10.0 mi North 5.8 mph - N/A   Clear
11:58 AM 70.5 °F 54.1 °F 56% 30.07 in 10.0 mi Variable 3.5 mph - N/A   Clear
12:58 PM 73.9 °F 55.6 °F 53% 30.07 in 10.0 mi North 8.1 mph - N/A   Clear
1:58 PM 75.6 °F 55.0 °F 49% 30.05 in 10.0 mi NW 8.1 mph - N/A   Clear
2:58 PM 76.8 °F 54.9 °F 46% 30.04 in 10.0 mi North 5.8 mph - N/A   Clear
3:58 PM 77.4 °F 53.6 °F 44% 30.04 in 10.0 mi WNW 6.9 mph - N/A   Clear
4:58 PM 77.0 °F 56.1 °F 48% 30.04 in 10.0 mi Variable 4.6 mph - N/A   Partly Cloudy
5:58 PM 76.5 °F 55.8 °F 49% 30.04 in 10.0 mi West 9.2 mph - N/A   Clear
6:58 PM 73.9 °F 46.0 °F 37% 30.03 in 10.0 mi West 6.9 mph - N/A   Clear
7:58 PM 71.1 °F 50.2 °F 48% 30.03 in 10.0 mi WNW 5.8 mph - N/A   Clear
8:58 PM 67.1 °F 50.5 °F 55% 30.05 in 10.0 mi West 6.9 mph - N/A   Partly Cloudy
9:58 PM 64.6 °F 48.2 °F 55% 30.06 in 10.0 mi Variable 3.5 mph - N/A   Clear
10:58 PM 62.4 °F 46.8 °F 57% 30.06 in 10.0 mi South 2.3 mph - N/A   Clear
11:58 PM 60.6 °F 46.4 °F 59% 30.07 in 10.0 mi Variable 2.3 mph - N/A   Clear